Theta_e
335 331 335 333 328 324 326 331 336 339 340 339 338 337 333 331 331 330 328 328 327 327 326 329 329 326 329 333 335 337 336 338 339 336 339 339 336 333 324 319 321 324 333
331 332 336 334 331 327 325 325 328 334 338 339 338 334 330 330 329 327 327 327 328 330 331 332 332 331 329 327 327 329 332 335 335 342 342 344 347 339 334 333 331 325 337
332 333 336 335 334 332 330 327 325 327 329 330 328 327 326 325 325 326 328 332 331 329 328 328 328 327 326 326 325 325 325 325 327 333 343 345 344 348 341 337 333 333 326
340 333 336 337 336 335 334 331 328 326 325 325 325 325 325 326 329 331 331 329 329 328 327 327 326 326 327 326 326 326 325 324 324 324 328 336 337 338 346 346 344 342 333
336 333 336 337 337 335 332 331 330 328 326 327 327 328 328 328 328 328 327 326 325 324 324 324 324 325 325 325 325 325 325 324 324 325 324 332 335 344 344 346 343 341 341
330 329 330 331 328 327 328 329 329 327 326 327 327 327 326 324 324 323 324 324 326 325 324 323 323 324 324 324 324 324 324 325 326 326 327 335 336 337 339 342 338 338 337
333 325 324 324 324 324 324 324 324 324 325 325 325 325 329 332 333 335 335 336 336 336 337 336 336 337 337 337 336 335 333 330 327 326 326 335 336 336 341 342 338 337 336
341 339 339 337 328 327 328 328 328 328 328 329 330 336 340 342 343 342 342 340 338 337 334 333 333 333 333 335 336 338 338 338 337 333 329 335 335 336 340 339 337 336 336
345 345 345 344 341 340 341 340 339 340 339 338 338 338 343 344 344 342 341 339 337 332 333 335 336 335 333 333 334 335 337 338 339 339 336 334 336 337 338 337 337 337 337
348 347 347 345 344 344 344 344 343 341 342 341 340 340 342 342 342 341 339 340 340 339 339 340 339 338 338 339 342 340 339 338 338 339 338 340 340 338 340 339 339 338 338
346 350 347 346 344 343 345 343 344 342 342 341 339 335 340 338 340 340 339 340 340 340 339 340 338 338 340 340 339 338 339 338 336 339 340 340 338 338 333 335 338 335 333
348 348 346 345 344 344 344 342 342 340 340 340 339 335 334 336 337 341 340 338 338 339 338 338 336 338 338 339 338 336 336 337 338 335 337 336 335 333 330 331 331 331 329
337 346 345 345 345 343 342 341 340 338 338 337 336 334 332 332 332 331 334 339 338 337 336 336 337 339 337 337 338 339 339 335 336 336 336 335 333 328 327 327 328 330 330
342 341 340 343 343 343 342 341 340 339 335 334 334 333 332 332 332 331 330 330 334 335 335 336 335 337 337 336 336 337 338 338 336 334 334 334 333 331 329 331 326 328 327
342 341 338 335 335 335 337 335 335 334 333 333 331 326 323 321 324 330 330 329 329 330 330 329 327 326 327 328 332 336 334 335 337 336 335 334 333 333 332 332 329 328 327
340 337 333 333 334 333 333 331 329 325 324 323 320 318 318 317 315 314 321 326 326 326 325 321 320 321 322 322 325 331 332 331 333 330 327 328 333 333 333 332 332 330 329
337 334 331 330 326 322 319 318 316 316 315 315 314 314 314 313 311 312 312 318 318 318 316 319 319 319 319 318 317 318 318 319 322 324 322 322 325 330 332 331 332 332 325
333 332 330 319 319 313 315 318 318 317 318 317 317 316 315 314 312 311 312 316 317 315 318 319 319 318 316 315 317 318 318 319 319 319 319 321 322 329 331 332 330 327 328
330 328 319 316 313 316 315 315 316 317 317 317 317 316 316 314 313 312 314 316 316 317 318 318 318 317 316 320 319 319 319 316 318 322 326 325 327 329 329 326 326 326 327
322 317 314 314 316 316 316 313 311 314 316 317 316 316 315 315 314 313 314 314 315 317 316 316 315 314 318 316 317 317 320 321 322 324 323 322 321 321 322 324 324 325 327
318 313 313 315 316 317 315 311 312 315 317 317 316 315 315 314 313 312 311 311 312 315 315 315 315 315 316 316 313 319 320 323 320 319 320 319 320 320 321 323 323 322 322
318 314 315 316 316 316 313 311 313 316 317 316 315 315 314 313 312 310 310 313 313 314 315 315 314 315 315 315 314 315 317 318 318 317 317 317 317 317 317 318 319 321 320
319 315 315 316 316 315 312 311 312 315 316 315 314 313 312 310 309 309 311 313 314 315 314 312 313 313 314 314 314 315 315 316 315 313 313 314 315 314 315 314 313 317 317
321 317 316 316 315 314 312 311 310 310 311 311 310 309 309 309 309 309 311 312 312 313 311 311 310 311 311 313 313 312 312 312 311 312 310 310 310 312 312 314 315 315 314
321 318 317 317 315 314 313 311 309 309 309 308 308 308 308 308 309 310 310 310 310 310 310 310 310 311 310 310 311 311 311 309 308 308 308 308 309 309 316 315 313 313 311
321 320 319 318 316 315 313 311 309 309 308 308 308 308 308 309 309 309 309 309 308 308 308 308 309 309 309 306 309 308 308 308 307 307 307 307 307 307 314 314 313 311 310
Wind_Speed
14 11 10 12 13 12 13 12 11 9 9 8 7 7 7 7 7 7 7 7 7 7 7 6 6 5 4 3 3 4 4 5 5 6 8 10 11 10 8 4 2 5 2
13 11 11 12 13 13 13 12 11 10 9 7 6 5 6 6 7 6 6 6 6 5 5 5 4 4 4 3 4 5 5 4 4 2 2 1 6 7 7 7 7 7 2
12 11 11 11 12 13 13 12 11 10 8 7 6 6 6 5 4 3 3 3 4 5 5 5 5 5 6 6 6 6 6 6 5 4 3 3 6 5 3 4 5 7 4
8 9 12 11 11 12 12 11 10 9 8 7 6 5 4 3 2 3 4 5 7 7 8 8 8 8 8 9 9 9 9 9 8 6 5 5 9 13 7 6 5 5 6
11 10 11 11 10 10 10 9 8 7 6 5 5 5 6 7 8 9 9 9 9 9 9 9 8 9 9 10 10 10 10 10 10 9 7 1 6 8 10 7 9 8 9
15 10 11 11 11 10 10 9 8 7 7 7 8 8 8 9 9 9 9 9 9 10 11 11 10 10 11 11 11 11 11 10 9 8 6 5 9 16 19 14 13 11 13
17 16 15 14 14 14 13 12 11 11 10 10 10 11 12 11 11 10 10 11 11 12 12 12 12 12 13 13 13 13 12 11 11 9 7 9 11 10 15 14 9 13 15
20 22 20 20 19 19 18 16 14 13 12 11 11 12 13 11 11 12 13 15 14 16 15 14 14 15 15 15 15 14 13 12 12 11 7 10 10 9 10 12 11 11 16
17 19 19 19 18 21 21 18 15 13 11 9 9 9 10 9 12 13 14 16 18 17 13 12 14 14 11 10 11 10 10 9 12 11 9 9 11 9 8 9 11 13 16
18 16 23 16 16 19 19 16 13 11 11 10 9 8 6 6 7 8 11 12 14 13 12 10 11 13 13 12 10 11 9 7 8 5 9 10 12 10 12 14 14 15 20
22 19 19 17 15 13 13 11 7 9 10 11 12 9 7 7 6 7 6 7 9 9 10 7 8 12 11 9 10 11 10 8 11 9 8 10 12 14 19 22 19 21 24
16 17 16 15 18 17 12 8 6 6 7 10 14 11 10 9 6 6 5 4 4 7 7 6 5 5 5 9 11 11 12 9 10 9 10 13 12 17 14 12 14 16 22
10 10 13 13 13 13 15 9 4 3 7 15 15 12 7 9 7 5 10 7 7 8 11 11 8 9 9 10 9 10 14 10 15 13 13 15 18 15 14 13 15 15 16
7 6 7 9 11 9 9 8 6 8 10 15 14 12 11 12 9 8 7 6 10 13 14 14 15 17 15 12 13 10 9 15 15 13 17 20 23 16 12 13 15 12 13
6 2 4 6 6 5 4 4 5 6 6 10 13 12 11 12 11 9 8 8 12 14 15 15 16 16 16 16 15 16 12 14 15 14 19 25 23 17 15 14 13 14 12
6 3 6 4 4 3 2 3 4 4 4 6 11 13 13 14 12 11 8 9 13 15 15 14 14 17 18 18 16 18 17 14 13 13 15 15 18 20 22 18 11 12 15
6 9 6 9 10 9 9 9 9 11 10 11 14 17 18 19 19 13 9 10 14 14 11 10 15 18 20 18 17 17 16 18 19 19 17 15 11 14 17 15 12 14 16
14 15 8 10 11 11 11 10 12 12 12 13 16 19 20 22 19 18 10 11 15 13 8 13 17 20 19 14 12 10 13 16 18 17 22 20 16 10 14 18 14 15 15
10 13 11 11 12 11 10 7 3 3 5 11 16 20 21 20 18 15 10 12 12 11 9 14 17 18 16 15 14 16 18 17 5 11 8 11 9 5 8 7 7 9 7
11 13 13 12 11 10 9 9 5 3 7 11 14 16 19 20 21 18 15 13 11 11 13 15 19 14 12 17 17 16 12 5 8 5 13 13 12 10 7 5 6 4 5
12 13 13 10 10 9 10 12 10 9 9 5 8 12 11 12 15 20 17 14 10 8 11 12 11 8 15 19 17 15 15 21 22 20 14 13 12 9 8 10 12 9 9
11 11 10 8 8 10 12 12 8 7 4 2 6 8 12 16 16 17 12 10 8 8 9 11 13 11 11 16 21 13 8 7 16 20 18 16 12 10 9 12 10 8 6
8 9 7 6 7 10 12 11 5 3 7 9 11 14 16 15 12 10 9 9 12 11 13 14 12 10 10 11 17 18 8 9 14 13 19 18 14 16 15 18 12 5 6
10 8 5 4 7 10 12 13 9 6 5 8 11 11 10 12 13 9 9 11 12 15 15 16 17 13 10 13 12 14 12 14 18 12 17 20 15 17 15 13 7 3 6
9 8 4 3 7 9 12 13 10 7 9 11 15 16 17 13 14 13 13 16 17 16 15 16 17 17 19 11 13 15 13 13 16 21 19 21 10 23 10 10 9 6 6
11 5 2 2 6 8 11 12 10 11 13 13 18 20 17 17 15 16 19 15 12 12 15 12 14 14 17 19 12 17 18 21 20 20 20 19 18 21 12 5 9 9 7
Wind_Direction
110 107 102 97 95 96 101 106 109 104 100 94 83 73 65 67 70 66 53 41 37 39 41 39 35 38 38 33 27 27 37 52 61 69 80 73 61 47 46 28 10 348 177
101 106 106 104 101 95 92 91 94 97 99 99 95 83 67 58 55 50 38 28 26 27 26 25 21 15 8 360 351 342 340 350 12 20 46 17 39 44 44 36 15 20 155
98 108 107 104 100 94 89 87 93 99 102 98 87 77 71 68 63 50 32 20 10 2 360 0 358 358 354 350 344 339 332 326 321 315 308 351 350 321 344 13 27 12 12
77 104 113 106 100 96 92 91 92 93 93 94 93 93 87 73 39 11 358 352 347 345 344 344 342 339 336 333 331 329 325 320 313 302 281 289 332 304 284 297 336 339 338
81 113 105 103 99 93 89 90 90 92 92 88 71 43 25 12 4 358 354 351 347 343 340 335 331 325 321 318 318 317 317 317 315 313 300 213 332 301 278 262 299 318 317
79 84 91 88 83 81 82 78 73 66 59 51 43 34 28 22 16 12 6 3 357 352 344 338 334 328 324 319 315 313 312 309 307 310 299 239 309 304 267 263 293 298 306
74 78 81 79 78 75 72 71 65 59 55 50 49 47 44 39 33 22 9 357 348 344 339 333 327 322 319 314 313 314 312 312 315 314 309 257 258 282 252 253 272 292 298
88 83 82 71 74 73 65 60 57 55 54 53 56 59 38 31 20 11 4 2 354 338 331 331 330 326 319 315 312 310 308 320 316 311 307 267 285 309 221 239 248 267 287
89 81 71 65 71 75 66 56 51 49 48 47 48 48 26 29 15 2 0 4 12 15 16 22 22 13 3 345 327 322 334 320 306 300 279 266 296 285 228 233 255 264 276
97 85 82 75 66 66 56 60 49 42 30 21 23 29 19 10 360 341 350 7 13 12 7 4 15 12 4 7 5 352 349 359 347 283 296 303 302 277 265 261 265 281 289
110 105 96 88 77 54 57 58 38 25 12 350 342 339 286 302 300 314 323 336 328 342 355 11 0 360 346 347 341 338 335 353 332 324 313 293 301 286 276 270 267 282 297
130 123 118 107 90 88 87 66 50 351 331 307 308 329 311 294 288 270 262 289 287 320 319 312 320 319 329 322 327 331 321 320 308 317 295 295 302 314 286 285 280 291 295
125 149 151 140 131 129 113 118 121 82 318 309 313 339 337 317 324 323 267 258 265 266 275 281 283 285 276 281 288 307 314 317 308 280 280 291 309 312 317 312 307 297 310
138 136 151 185 178 180 185 191 257 277 298 304 327 338 324 315 317 322 309 275 264 269 270 282 283 271 273 277 267 276 278 284 297 293 293 289 291 298 308 322 316 305 322
134 195 160 179 182 192 237 256 289 320 334 319 322 332 340 340 337 327 298 287 279 278 287 288 289 284 281 279 257 256 266 268 259 281 299 291 276 287 294 298 304 300 303
181 90 64 84 96 74 63 38 43 10 346 339 319 326 340 331 326 326 313 283 282 290 304 298 296 289 290 287 271 257 265 268 272 276 298 309 276 280 286 287 279 283 293
184 131 83 99 100 93 82 67 45 27 10 0 329 327 336 328 325 323 317 287 294 311 308 293 291 288 296 296 289 283 278 270 268 270 296 307 291 283 271 256 269 272 274
158 152 141 115 103 94 78 52 37 20 10 347 331 329 330 334 331 333 333 310 314 325 331 320 304 306 314 325 309 298 282 284 289 297 296 299 305 290 268 255 275 279 284
156 159 136 119 108 94 78 75 61 32 338 326 322 324 326 334 338 336 329 328 333 329 326 327 323 332 342 343 320 300 301 305 337 341 341 336 349 320 294 328 295 300 292
148 136 129 115 95 78 57 40 23 357 20 333 337 333 330 330 343 341 340 331 334 337 350 347 340 341 16 359 312 314 3 40 67 48 54 58 51 27 16 355 0 348 296
142 134 125 109 82 57 35 26 35 55 37 346 316 319 314 331 341 339 346 1 355 9 355 351 5 12 26 8 12 115 66 96 77 62 61 58 59 64 7 360 348 344 324
147 141 131 102 69 40 26 24 43 72 105 312 315 316 320 329 340 352 7 14 27 14 12 21 22 28 27 24 22 42 30 79 60 54 49 44 32 2 4 0 360 346 352
160 152 135 99 62 34 22 17 32 200 232 256 294 321 325 350 9 15 13 29 30 26 37 29 19 15 26 40 47 45 19 16 13 21 33 40 28 8 2 6 3 336 360
177 175 139 80 42 20 19 7 13 4 347 339 323 337 345 19 35 29 28 34 43 40 42 46 41 31 12 40 68 53 56 27 14 350 17 21 27 7 350 345 23 24 348
185 183 154 62 36 11 8 11 23 28 41 35 42 43 50 53 57 50 51 52 55 46 45 41 43 31 49 47 48 32 43 41 33 28 11 8 22 20 339 339 0 358 358
179 192 157 29 37 357 4 9 25 49 57 62 67 57 69 69 61 64 55 48 50 48 36 43 49 46 39 43 57 51 39 37 28 15 7 2 358 16 359 24 18 12 356